Morgantown, WV

5:49 AM EDT on May 30, 2017 (GMT -0400)
Morgantown Municipal-Hart

Weather History for KMGW - April, 2013

Change the Weather History Date:

Saturday, April 20, 2013

  Actual Average Record
Temperature  
Mean Temperature 45 °F 54 °F  
Max Temperature 53 °F 66 °F 90 °F (1976)
Min Temperature 37 °F 43 °F 28 °F (1951)
Degree Days  
Heating Degree Days 20 11  
Month to date heating degree days 195 283  
Since 1 July heating degree days 4667 4884  
Cooling Degree Days 0 1  
Month to date cooling degree days 36 2  
Year to date cooling degree days 36 4  
Moisture  
Dew Point 25 °F    
Average Humidity 49    
Maximum Humidity 70    
Minimum Humidity 28    
Precipitation  
Precipitation 0.01 in 0.11 in 1.30 in (1964)
Month to date precipitation 1.42 2.33  
Year to date precipitation 8.37 11.39  
Sea Level Pressure  
Sea Level Pressure 30.14 in    
Wind  
Wind Speed 8 mph (West)    
Max Wind Speed 16 mph    
Max Gust Speed 26 mph    
Visibility 10 miles    
Events Rain    
T = Trace of Precipitation, MM = Missing Value Source: NWS Daily Summary

Daily Weather History Graph

Daily Weather History Graph

Search for Another Location

Airport or City:

Trip Planner

Search our weather history database for the weather conditions in past years. The results will help you decide how hot, cold, wet, or windy it might be!

Date:

Astronomy

Apr. 20, 2013 Rise Set
Actual Time 6:34 AM EDT 8:02 PM EDT
Civil Twilight 6:06 AM EDT 8:31 PM EDT
Nautical Twilight 5:32 AM EDT 9:05 PM EDT
Astronomical Twilight 4:56 AM EDT 9:41 PM EDT
Moon 2:46 PM EDT (4/20) 3:22 AM EDT (4/20)
Length of Visible Light 14h 24m
Length of Day
13h 28m
Waxing Gibbous, 71% of the Moon is Illuminated
Apr 20
Waxing Gibbous
Apr 25
Full
May 2
Last Quarter
May 9
New
May 18
First Quarter

Hourly Weather History & Observations

Time (EDT) Temp. Windchill Dew Point Humidity Pressure Visibility Wind Dir Wind Speed Gust Speed Precip Events Conditions
12:53 AM 46.0 °F 43.1 °F 30.9 °F 56% 29.90 in 10.0 mi WSW 5.8 mph - N/A   Overcast
1:53 AM 43.0 °F 38.2 °F 33.1 °F 68% 29.94 in 10.0 mi West 8.1 mph 16.1 mph 0.01 in   Overcast
2:53 AM 42.1 °F 38.4 °F 28.9 °F 60% 29.97 in 10.0 mi Variable 5.8 mph - N/A   Overcast
3:53 AM 41.0 °F 36.4 °F 28.9 °F 62% 30.00 in 10.0 mi Variable 6.9 mph - N/A   Mostly Cloudy
4:53 AM 39.9 °F 33.9 °F 26.1 °F 58% 30.01 in 10.0 mi SW 9.2 mph 19.6 mph N/A   Clear
5:53 AM 39.0 °F 34.0 °F 26.1 °F 60% 30.01 in 10.0 mi WSW 6.9 mph - N/A   Scattered Clouds
6:53 AM 39.0 °F 32.8 °F 27.0 °F 62% 30.04 in 10.0 mi SW 9.2 mph - N/A   Mostly Cloudy
7:53 AM 39.0 °F 32.8 °F 28.9 °F 67% 30.07 in 9.0 mi West 9.2 mph - 0.00 in Rain Light Rain
8:53 AM 41.0 °F 35.2 °F 27.0 °F 57% 30.08 in 10.0 mi WSW 9.2 mph - 0.00 in   Overcast
9:53 AM 43.0 °F 37.2 °F 27.0 °F 53% 30.10 in 10.0 mi West 10.4 mph 20.7 mph N/A   Overcast
10:53 AM 44.1 °F 38.6 °F 27.0 °F 51% 30.14 in 10.0 mi West 10.4 mph 19.6 mph N/A   Overcast
11:53 AM 48.0 °F - 27.0 °F 44% 30.14 in 10.0 mi Variable 6.9 mph - N/A   Mostly Cloudy
12:53 PM 48.0 °F - 27.0 °F 44% 30.14 in 10.0 mi WNW 12.7 mph 19.6 mph N/A   Mostly Cloudy
1:53 PM 48.9 °F - 23.0 °F 36% 30.15 in 10.0 mi West 11.5 mph 17.3 mph N/A   Mostly Cloudy
2:53 PM 52.0 °F - 21.9 °F 31% 30.16 in 10.0 mi WNW 12.7 mph 23.0 mph N/A   Scattered Clouds
3:53 PM 51.1 °F - 19.9 °F 29% 30.17 in 10.0 mi WNW 12.7 mph 21.9 mph N/A   Mostly Cloudy
4:53 PM 53.1 °F - 21.9 °F 30% 30.19 in 10.0 mi West 8.1 mph - N/A   Mostly Cloudy
5:53 PM 51.1 °F - 21.9 °F 32% 30.22 in 10.0 mi NW 6.9 mph 19.6 mph N/A   Mostly Cloudy
6:53 PM 48.9 °F - 21.0 °F 33% 30.26 in 10.0 mi NW 9.2 mph - N/A   Partly Cloudy
7:53 PM 46.0 °F 42.5 °F 21.9 °F 39% 30.29 in 10.0 mi NW 6.9 mph - N/A   Clear
8:53 PM 44.1 °F 41.5 °F 21.9 °F 42% 30.33 in 10.0 mi Variable 4.6 mph - N/A   Clear
9:53 PM 42.1 °F 38.4 °F 21.9 °F 45% 30.36 in 10.0 mi NNW 5.8 mph - N/A   Clear
10:53 PM 39.9 °F - 23.0 °F 51% 30.39 in 10.0 mi Calm Calm - N/A   Clear
11:53 PM 39.0 °F - 23.0 °F 53% 30.40 in 10.0 mi Calm Calm - N/A   Clear